Theta_e
319 327 328 331 340 339 343 344 343 345 344 340 342 347 347 347 350 353 342 339 333 340 325 329 334 336 336 338 341 342 343 343 336 329 332 332 333 333 332 330 328 326 325 325 324 324 324 324 324
327 326 327 331 337 341 342 341 344 344 341 337 336 342 344 348 347 347 346 340 335 342 325 328 333 335 336 337 339 341 343 343 333 329 332 332 333 332 330 329 327 325 325 324 325 325 325 324 324
320 322 326 333 336 338 342 340 341 339 333 332 338 341 345 348 347 349 350 342 336 342 327 326 330 334 336 337 338 337 340 340 329 329 332 330 330 330 329 328 326 325 326 326 326 327 326 325 325
321 322 324 329 335 337 339 338 337 337 332 331 337 341 345 348 348 351 349 342 339 341 342 325 329 332 334 336 334 333 335 332 329 329 330 328 328 328 328 327 326 326 327 331 337 337 333 328 328
321 323 326 327 328 332 337 337 335 337 335 330 336 341 345 352 350 351 349 345 341 340 343 326 327 329 331 330 328 331 331 328 328 329 328 328 328 328 328 329 326 327 330 338 336 334 335 334 334
323 323 325 326 327 329 331 332 334 335 334 332 332 341 350 352 351 350 349 347 342 340 346 327 327 327 327 325 325 327 328 328 328 328 328 329 329 328 330 329 326 327 338 332 320 320 322 331 334
323 326 325 326 326 327 328 328 331 333 333 332 329 343 353 352 353 351 349 347 343 340 346 327 327 326 325 325 325 326 327 327 328 328 328 329 328 327 331 329 326 332 333 315 314 314 316 318 319
322 325 325 326 325 326 327 326 327 329 331 328 332 342 352 354 353 351 349 347 342 340 344 343 332 326 325 325 326 326 327 327 327 328 328 328 327 327 333 328 326 339 320 317 315 314 318 320 320
322 324 325 325 326 326 326 326 325 326 327 328 329 336 347 354 353 352 350 347 343 340 341 342 342 341 338 334 325 326 326 326 327 328 328 328 330 335 336 332 338 335 319 319 320 319 319 319 326
323 324 324 326 326 325 325 325 325 325 326 328 329 336 344 351 354 353 352 350 345 341 339 340 340 341 340 340 336 326 327 327 327 327 329 328 340 342 344 342 338 326 321 319 319 319 320 327 334
323 324 325 325 324 323 324 325 324 325 325 327 330 331 335 348 352 352 351 351 348 342 339 340 340 340 340 339 345 338 340 338 336 336 342 337 340 342 342 343 342 328 333 339 335 331 329 328 329
323 323 324 324 323 323 324 323 324 324 325 325 328 328 328 340 348 350 349 349 348 345 341 341 341 342 341 340 343 343 340 342 341 342 344 345 341 341 342 342 342 343 341 337 331 331 330 327 328
322 323 323 323 322 323 322 323 323 323 323 323 325 326 327 329 341 346 347 348 348 347 345 343 343 344 344 342 343 344 342 342 342 343 344 344 342 340 341 342 342 343 342 339 335 331 329 328 328
322 322 322 322 321 322 322 322 321 322 323 323 324 325 327 332 334 344 347 347 347 349 348 347 345 346 347 346 344 344 345 343 343 343 342 343 342 340 341 343 344 345 345 342 337 332 329 329 328
320 321 323 322 322 323 322 322 322 323 323 324 324 325 326 331 341 347 348 349 350 351 350 350 349 349 350 349 346 347 346 345 345 343 342 343 338 340 340 342 345 345 346 347 340 332 330 327 329
321 322 322 324 323 322 322 323 324 322 323 324 324 325 326 326 334 338 344 347 350 352 353 353 351 350 353 351 350 348 347 347 346 345 344 343 342 331 338 340 343 344 348 348 341 337 332 328 329
323 322 323 324 324 323 322 323 324 324 324 324 324 324 325 326 328 331 331 329 336 347 352 354 353 352 353 354 352 350 349 348 347 346 345 344 339 338 332 339 339 345 346 346 344 338 335 329 329
323 325 324 324 324 322 323 323 324 324 324 324 324 324 325 326 332 334 336 338 331 331 347 352 353 354 353 355 354 352 351 349 347 347 346 345 343 340 339 338 338 344 345 346 345 339 336 329 331
323 323 324 324 323 322 323 323 324 323 323 324 324 324 324 328 332 333 335 338 342 335 337 348 351 354 354 354 355 353 352 349 349 346 345 344 339 339 339 336 338 340 345 345 345 340 339 332 329
322 322 323 323 323 322 322 322 323 324 324 323 324 325 327 330 332 334 336 339 342 344 340 345 351 353 356 355 354 353 353 349 347 342 341 338 339 337 338 328 337 338 344 346 344 341 340 333 330
322 323 323 323 323 322 322 322 324 324 324 325 327 329 330 332 333 336 338 341 342 344 344 344 345 351 354 354 354 354 352 349 348 348 344 336 337 337 334 327 327 337 338 345 343 344 340 335 330
322 322 322 321 322 323 324 322 324 325 325 327 327 328 330 333 335 337 340 342 343 344 346 347 342 347 351 354 352 352 352 351 348 350 348 345 341 339 339 329 330 326 342 344 344 342 341 339 329
322 323 323 322 322 324 324 324 326 325 327 328 329 332 332 334 335 336 339 340 341 343 346 349 352 348 351 351 352 352 351 350 350 348 347 347 345 344 343 334 326 326 329 336 345 342 342 340 333
322 322 323 323 324 325 325 325 326 327 327 330 332 332 332 332 333 334 335 336 337 339 342 346 348 350 350 350 348 348 350 351 349 349 348 347 347 344 342 338 329 331 330 335 344 342 343 340 333
322 323 325 325 325 325 325 326 325 332 331 332 333 332 331 330 331 330 329 332 334 335 336 338 341 343 346 348 349 347 346 347 348 350 351 349 348 347 347 342 335 337 338 341 343 341 342 339 334
322 323 324 326 326 326 327 325 331 333 332 332 332 329 327 330 329 326 325 329 331 332 332 333 333 334 338 341 345 348 348 346 346 347 347 349 348 348 347 346 342 342 341 341 343 342 341 341 336
321 322 323 325 326 327 328 332 331 331 331 330 330 327 325 325 326 323 322 323 325 326 327 328 332 332 331 333 335 340 343 347 348 348 347 347 348 348 348 346 344 341 341 341 343 341 339 338 339
320 321 324 323 324 325 326 327 331 332 330 330 327 325 324 323 322 322 322 320 320 320 321 325 330 330 330 330 332 333 337 340 342 345 346 346 345 347 348 345 342 341 341 341 341 337 336 338 336
320 321 322 323 325 327 328 328 330 330 327 326 324 322 321 322 321 321 320 320 320 321 321 321 322 324 327 328 329 330 332 335 336 338 341 343 343 342 342 342 341 340 339 338 335 331 331 335 335
321 322 322 326 326 326 325 325 326 326 322 320 320 319 318 317 317 316 316 317 317 317 318 320 321 320 321 325 326 328 329 330 333 333 337 339 342 342 342 339 337 336 334 333 332 331 330 333 332
Wind_Speed
10 10 11 14 8 8 7 6 2 7 4 6 2 10 14 30 18 4 14 11 21 23 24 24 24 23 20 18 17 17 17 14 13 11 10 9 8 6 5 4 2 2 2 2 2 2 2 3 3
4 9 12 15 10 13 7 11 5 9 8 3 2 7 7 9 17 14 15 14 21 22 25 25 25 23 22 19 17 16 16 15 14 11 10 8 7 5 4 2 1 0 1 1 1 1 0 1 2
5 8 14 12 13 16 11 4 6 2 2 3 2 2 6 10 7 7 8 15 21 22 25 25 24 22 21 20 18 17 17 16 15 12 11 8 6 5 3 2 1 1 1 2 2 2 1 1 1
5 10 14 11 18 14 4 11 4 3 4 5 5 5 5 5 3 4 9 16 21 22 24 24 25 23 21 20 19 18 18 17 14 12 11 9 6 4 3 2 2 2 2 1 2 2 2 1 0
8 13 11 15 17 20 4 4 1 5 3 3 4 4 3 4 3 4 9 16 21 22 23 26 24 23 21 20 19 18 18 16 13 12 10 8 6 5 3 3 3 2 2 3 4 3 3 2 1
13 13 13 14 18 14 9 1 6 8 3 1 8 3 8 5 4 5 10 18 20 23 22 28 26 23 21 20 19 18 17 16 13 12 10 8 7 5 4 4 3 3 4 5 6 4 3 3 3
16 12 14 17 16 9 4 5 9 10 5 1 6 9 9 8 5 8 13 19 21 23 21 27 28 25 22 19 19 18 17 15 14 12 10 9 8 6 5 5 4 4 5 5 4 3 2 2 3
18 12 19 16 15 13 6 5 13 5 10 4 2 7 8 9 11 11 15 19 22 23 20 23 26 27 24 22 20 18 17 16 14 12 12 11 9 7 6 5 5 6 4 3 3 3 3 3 3
11 13 14 17 12 10 5 6 15 5 8 10 3 6 4 6 11 13 15 19 21 24 23 23 23 22 22 21 23 20 19 17 16 15 14 12 8 7 8 6 7 8 3 2 4 4 4 5 5
16 12 18 10 8 3 6 6 10 7 13 15 11 5 2 5 8 12 15 19 21 24 25 24 24 23 22 19 21 23 21 19 18 16 15 13 8 8 7 12 9 7 4 3 4 4 6 8 3
17 17 18 6 8 11 15 12 9 14 14 12 12 6 5 7 11 12 13 16 19 23 24 24 25 25 23 21 19 20 17 17 17 16 14 12 9 10 10 8 8 6 4 4 8 8 9 4 1
19 20 16 15 6 12 12 15 17 11 17 16 5 5 7 10 12 13 15 17 17 21 24 24 24 26 24 21 19 17 18 16 15 16 16 14 12 11 9 6 6 3 7 3 5 4 6 4 3
17 17 14 14 15 14 15 16 17 18 16 16 13 11 14 13 13 14 13 12 15 20 23 24 24 25 26 24 20 18 18 17 16 15 16 16 13 11 10 9 7 7 5 6 5 5 4 3 3
15 16 22 12 16 16 16 18 19 22 15 16 12 14 13 13 15 15 12 11 13 16 21 23 24 27 25 27 22 20 19 18 18 16 15 17 15 13 10 9 8 7 7 6 6 6 4 3 4
17 17 16 17 16 15 12 18 19 19 15 11 16 15 11 7 9 12 12 9 9 14 17 23 25 25 25 24 26 21 19 18 17 17 17 16 17 16 14 11 10 8 9 7 7 6 6 4 4
14 17 16 18 20 17 14 17 19 21 18 14 16 17 10 10 4 2 7 8 7 10 15 19 21 24 24 23 21 20 19 18 18 17 17 18 17 17 17 13 11 9 10 7 8 6 6 6 6
16 15 19 15 7 10 14 15 19 13 10 14 14 15 13 8 7 5 3 1 5 10 13 17 22 22 24 22 20 20 20 20 17 18 19 21 19 18 18 13 12 12 10 10 9 8 8 7 7
17 18 17 12 15 12 14 17 16 9 15 14 14 16 12 9 9 4 2 3 2 10 12 14 17 22 24 22 23 19 19 20 20 20 21 19 18 18 20 15 14 13 11 11 11 11 8 8 8
22 14 14 10 11 7 15 15 14 13 16 14 17 12 11 3 3 2 4 7 6 2 8 14 17 20 25 24 22 21 21 21 22 29 26 22 26 21 22 17 15 15 14 12 14 12 11 8 8
18 14 17 15 11 9 15 18 16 13 13 18 16 13 5 6 4 1 7 8 8 7 1 9 15 18 20 21 23 20 19 21 21 18 25 25 27 23 20 18 16 15 12 15 18 15 9 8 8
17 18 16 16 12 10 16 18 14 16 11 5 2 3 6 4 1 6 7 9 9 9 7 5 11 16 19 20 18 18 19 20 19 20 26 34 27 17 19 23 21 18 18 16 18 17 14 10 9
18 17 16 16 14 13 21 14 20 18 12 12 11 10 6 3 6 8 9 11 12 12 10 8 5 11 14 17 19 19 19 19 22 20 18 18 23 20 22 23 22 22 17 16 17 16 14 11 11
16 17 13 16 17 16 16 9 17 21 20 16 9 6 6 8 9 11 12 13 13 14 13 11 8 1 8 11 16 17 18 17 19 21 20 20 29 22 23 27 25 23 24 18 18 17 16 11 12
10 13 17 13 15 16 21 17 12 13 22 18 12 8 7 8 10 12 12 14 17 17 15 14 9 5 1 7 12 15 18 15 17 18 19 22 20 22 27 26 26 26 25 24 21 26 21 17 13
13 14 11 14 14 17 18 19 12 11 12 16 13 12 9 7 8 11 12 13 16 19 19 18 17 14 7 1 5 10 11 17 19 18 16 19 19 18 20 25 26 26 27 28 31 28 25 20 17
14 18 15 20 14 14 14 21 10 15 14 15 13 11 9 7 9 10 11 12 14 16 18 19 19 17 16 14 7 3 8 11 14 15 19 18 23 22 22 22 27 31 28 30 32 29 26 25 20
16 14 9 10 18 14 9 10 10 13 13 15 15 11 8 6 6 7 10 11 12 13 15 17 17 17 17 17 15 13 9 9 10 13 17 24 22 24 27 28 27 29 30 32 33 33 34 33 31
12 8 8 10 14 18 15 7 5 2 5 10 13 10 7 2 2 5 7 9 10 11 13 14 14 15 16 17 17 16 14 13 11 13 14 17 20 23 27 26 27 27 26 26 28 26 30 40 41
8 12 14 13 7 12 13 10 7 4 3 11 11 7 5 2 5 6 8 8 8 9 12 12 12 14 15 17 17 16 16 16 11 9 9 13 18 20 19 20 18 19 20 24 27 23 26 38 37
11 12 1 6 13 13 13 12 12 13 9 3 4 1 5 5 6 8 9 9 10 11 12 12 13 13 12 14 15 16 16 15 16 11 9 11 16 16 19 20 18 18 19 21 25 24 25 30 34
Wind_Direction
277 314 300 286 245 234 150 99 176 121 177 1 301 291 14 287 36 44 134 144 156 163 168 168 167 162 161 165 172 176 172 170 166 161 160 160 148 139 129 123 118 107 83 74 80 92 113 131 146
261 278 281 272 264 255 94 130 214 35 64 307 280 261 269 35 64 115 130 143 158 167 169 173 171 169 165 167 173 175 177 177 175 169 166 164 159 153 150 156 169 115 71 37 30 29 32 186 181
256 262 272 255 251 267 129 139 84 90 35 346 10 222 2 67 72 90 121 151 158 165 171 177 174 174 171 171 175 176 178 181 181 176 172 170 172 171 179 211 262 303 4 1 342 343 328 243 209
245 241 246 260 262 252 49 117 75 255 163 355 31 239 148 64 67 112 149 161 165 165 167 177 177 177 175 177 179 179 179 183 184 182 179 179 180 187 210 244 286 314 333 354 350 345 330 335 167
237 257 254 247 240 266 157 81 255 266 253 28 316 53 120 79 142 146 158 167 169 168 172 175 181 181 181 179 181 183 183 186 189 189 190 189 190 199 229 271 294 307 319 328 325 310 304 294 247
238 243 249 245 241 240 259 191 252 267 264 270 326 295 88 98 113 169 166 169 170 170 177 181 182 184 184 184 183 185 189 191 193 195 198 203 208 217 235 268 291 297 310 319 308 297 281 279 283
248 240 250 268 279 262 214 210 243 238 302 51 309 287 124 120 134 140 153 162 168 171 176 182 181 186 186 188 189 190 192 196 199 202 206 215 222 233 253 279 287 288 314 325 317 318 320 310 295
245 258 270 258 262 266 240 222 244 252 245 32 266 346 15 130 130 139 148 159 166 172 179 175 181 186 188 189 195 197 198 201 205 209 214 222 229 241 261 278 279 293 323 343 343 328 328 336 330
242 262 251 252 246 244 239 245 245 241 259 235 232 292 40 136 125 145 154 163 172 175 182 176 179 186 185 192 196 199 204 207 210 214 221 227 232 252 257 267 260 291 307 335 347 340 352 356 35
231 232 251 293 332 293 285 240 267 247 250 227 201 173 32 143 157 161 169 174 180 180 182 178 182 190 185 192 202 201 208 211 213 219 227 225 216 233 225 255 279 276 286 321 342 353 17 29 311
228 248 276 320 264 278 279 262 253 252 256 248 231 152 182 190 191 193 186 187 191 187 187 187 182 194 191 191 204 197 201 206 214 212 212 225 219 237 232 258 278 272 343 304 350 348 5 307 264
241 258 262 275 239 250 255 263 268 259 260 264 220 260 258 205 199 202 198 192 194 194 193 191 190 196 191 197 203 198 198 206 207 212 216 208 212 226 224 239 258 252 266 246 291 309 270 314 295
245 251 262 259 253 247 261 255 264 262 252 254 253 255 244 218 206 211 210 211 200 197 200 198 198 196 193 196 205 202 202 209 209 211 215 209 216 218 231 226 224 250 255 279 276 285 286 297 303
248 256 259 244 247 241 244 253 247 255 255 244 245 243 237 223 204 199 202 211 216 207 204 204 201 206 198 198 203 204 207 210 207 213 215 222 211 214 221 230 235 238 258 263 267 271 274 290 261
256 261 257 245 239 244 238 254 245 243 248 233 237 230 238 242 216 197 199 209 205 203 202 202 203 211 205 207 200 209 213 210 217 212 218 217 222 213 212 223 232 245 259 234 260 261 270 264 277
244 245 254 233 212 225 231 258 223 229 223 238 240 226 215 221 238 93 198 206 205 197 206 204 209 209 218 210 214 214 217 219 217 220 219 219 221 217 237 216 227 238 256 262 251 262 265 263 259
225 246 227 246 184 238 207 249 252 181 200 239 244 233 218 203 160 27 1 268 219 214 205 203 207 208 216 216 215 216 218 221 223 223 222 226 233 227 219 225 223 229 240 257 249 254 254 259 248
227 216 248 237 168 219 230 236 269 185 217 224 233 232 225 216 94 89 49 45 332 203 225 212 214 211 212 218 216 219 220 222 221 224 221 222 225 219 234 217 215 219 234 244 245 239 250 244 260
274 282 292 248 232 214 239 248 235 232 228 226 230 216 217 204 63 52 45 49 40 34 206 222 217 221 211 212 215 217 219 219 219 219 214 222 232 220 216 222 229 221 225 231 241 234 246 253 248
255 259 257 262 253 220 250 242 248 244 227 230 228 184 159 206 189 26 46 50 44 36 13 219 223 222 221 218 218 222 223 226 230 231 226 227 234 241 219 232 219 230 229 229 230 240 232 253 236
241 248 249 253 217 247 262 255 224 231 202 131 203 124 186 210 88 50 51 42 40 31 10 315 231 227 224 217 228 226 221 221 229 225 240 228 229 229 238 240 229 219 237 232 244 240 238 239 239
248 237 253 265 245 241 206 251 217 209 180 183 180 195 174 133 79 58 54 42 35 32 25 15 311 225 227 225 223 229 229 229 223 227 230 233 238 241 242 232 229 221 224 212 242 240 231 243 234
246 269 225 247 255 260 242 241 292 173 181 177 170 143 142 95 71 61 54 49 39 34 33 30 28 281 230 229 229 230 242 237 236 232 228 240 251 244 246 243 237 234 225 223 212 236 234 231 245
284 263 258 243 246 243 244 249 234 217 184 147 143 140 113 94 81 67 58 49 46 42 40 36 54 80 211 246 246 242 230 239 237 239 238 229 234 241 237 235 231 231 230 217 219 223 233 232 226
238 240 241 228 228 243 245 236 252 91 85 136 139 133 111 103 84 63 50 50 47 44 43 38 37 32 42 330 249 255 265 238 235 244 239 235 231 231 232 230 217 221 223 214 219 226 229 230 238
232 232 244 250 247 259 279 229 136 115 121 127 127 110 106 93 82 58 47 47 51 46 42 40 35 34 32 24 2 266 247 259 248 237 235 243 235 229 226 230 207 221 227 224 225 228 229 228 232
252 259 277 309 275 263 239 104 126 142 146 150 139 123 103 88 82 52 53 44 41 38 32 25 26 26 27 28 26 6 328 260 235 246 240 235 230 224 218 225 228 228 227 231 238 237 238 232 230
251 302 254 241 270 271 267 203 324 290 161 160 132 124 100 48 52 41 34 38 30 30 26 26 22 19 17 20 20 17 12 344 299 255 246 248 241 239 231 233 251 244 243 242 244 244 246 240 231
197 236 231 249 215 251 265 278 136 153 53 343 65 65 56 336 353 346 353 355 352 359 1 6 11 7 3 6 7 8 10 0 348 320 264 251 255 244 240 236 226 222 228 230 233 244 252 238 228
302 283 4 288 223 234 267 260 140 156 156 210 61 94 66 25 18 13 1 358 354 349 342 341 340 349 349 348 352 355 357 359 356 341 319 275 242 225 208 206 232 231 227 237 245 254 253 241 229